Location: Maccacari
(45.1333°N, 11.1333°E)
Time: 08:36:30
(UTC+00:00)

NOSS 3-2 (A) - Pass Details

Date: 18 September 2020
Orbit: 795 x 1413 km, 63.4° (Epoch: 28 October)

Event Time Altitude Azimuth Distance (km) Brightness Sun altitude
Rises 20:01:18 0° 319° (NW) 4,005 7.9 -27.6°
Reaches altitude 10° 20:03:55 10° 316° (NW) 3,124 7.1 -28.0°
Maximum altitude 20:11:22 59° 240° (WSW) 1,489 4.4 -29.0°
Enters shadow 20:13:58 43° 186° (S) 1,809 4.6 -29.4°
